Voltar ao catálogo

SATCOM C1

AtivoComunicaçõesGEO
NORAD 20945·PAYLOAD·🇺🇸 United States

Lançado Nov 20, 1990 de Guiana Space Centre

Loading…

TLE

AtualizadoSource: Space-Track

Época: Sep 14, 2026, 05:00 UTC

1 20945U 90100A   26257.20851734 -.00000242  00000-0  00000-0 0  9991
2 20945  13.5334  14.7066 0012488  22.2636 339.6810  0.99185808127872

Acompanhe SATCOM C1 em tempo real com AllMySat

Download on the App Store